This is the latest recevied weather packets stored in our database for station/object DG7YEO-13. If no packets are shown the sender has not sent any weather packets the latest 10 day(s).
| Time | Temp. | Humidity | Pressure | Rain* | Wind** | Luminosity | Snow |
|---|---|---|---|---|---|---|---|
| 1777894325 | 20° C | 69% | 1012.3 hPa | 0 mm | - | - | - |
| 1777893425 | 20° C | 68% | 1012.3 hPa | 0 mm | - | - | - |
| 1777892525 | 20.56° C | 67% | 1012.3 hPa | 0 mm | - | - | - |
| 1777891625 | 20.56° C | 67% | 1012.4 hPa | 0 mm | - | - | - |
| 1777890725 | 20.56° C | 69% | 1012.4 hPa | 0 mm | - | - | - |
| 1777889825 | 19.44° C | 72% | 1012.5 hPa | 0 mm | - | - | - |
| 1777888925 | 18.89° C | 73% | 1012.6 hPa | 0 mm | - | - | - |
| 1777888025 | 18.89° C | 74% | 1012.7 hPa | 0 mm | - | - | - |
| 1777887125 | 18.33° C | 76% | 1012.8 hPa | 0 mm | - | - | - |
| 1777886225 | 18.33° C | 75% | 1012.8 hPa | 0 mm | - | - | - |
| 1777885325 | 18.33° C | 77% | 1012.8 hPa | 0 mm | - | - | - |
| 1777884425 | 17.78° C | 79% | 1012.7 hPa | 0 mm | - | - | - |
| 1777883525 | 17.22° C | 80% | 1012.7 hPa | 0 mm | - | - | - |
| 1777882625 | 16.67° C | 82% | 1012.7 hPa | 0 mm | - | - | - |
| 1777881725 | 16.67° C | 84% | 1012.7 hPa | 0 mm | - | - | - |
| 1777880825 | 16.11° C | 85% | 1012.6 hPa | 0 mm | - | - | - |
| 1777879924 | 16.11° C | 87% | 1012.5 hPa | 0 mm | - | - | - |
| 1777879025 | 15.56° C | 87% | 1012.5 hPa | 0 mm | - | - | - |
| 1777878125 | 15.56° C | 89% | 1012.4 hPa | 0 mm | - | - | - |
| 1777877225 | 15.56° C | 90% | 1012.3 hPa | 0 mm | - | - | - |
| 1777876325 | 15° C | 91% | 1012.3 hPa | 0 mm | - | - | - |
| 1777875425 | 14.44° C | 92% | 1012.1 hPa | 0 mm | - | - | - |
| 1777874525 | 14.44° C | 93% | 1012 hPa | 0 mm | - | - | - |
| 1777873624 | 14.44° C | 93% | 1012.1 hPa | 0 mm | - | - | - |
| 1777872725 | 13.89° C | 93% | 1012 hPa | 0 mm | - | - | - |
* Rain latest hour (hover to see other rain measurements)
** Current wind speed in m/s (hover to see current wind gust speed)